Change the Weather History Date:

Friday, May 24, 2013

  Actual Average (KMGW) Record (KMGW)
Temperature  
Mean Temperature 43 °F 63 °F  
Max Temperature 53 °F 74 °F 87 °F (1952)
Min Temperature 33 °F 52 °F 33 °F (1956)
Degree Days  
Heating Degree Days 22 4  
Month to date heating degree days 146  
Since 1 July heating degree days 5129  
Cooling Degree Days 0 2  
Month to date cooling degree days 34  
Year to date cooling degree days 50  
Moisture  
Dew Point 37 °F    
Average Humidity 93    
Maximum Humidity 100    
Minimum Humidity 70    
Precipitation  
Precipitation 0.00 in 0.16 in 1.32 in (1968)
Month to date precipitation 3.53  
Year to date precipitation 16.11  
Sea Level Pressure  
Sea Level Pressure 30.06 in    
Wind  
Wind Speed 10 mph (WNW)    
Max Wind Speed 14 mph    
Max Gust Speed 28 mph    
Visibility 5 miles    
Events Fog    
T = Trace of Precipitation, MM = Missing Value Source: NWS Daily Summary

Daily Weather History Graph

Daily Weather History Graph

Search for Another Location

Airport or City:

Trip Planner

Search our weather history database for the weather conditions in past years. The results will help you decide how hot, cold, wet, or windy it might be!

Date:

Astronomy

May. 24, 2013 Rise Set
Actual Time 5:55 AM EDT 8:32 PM EDT
Civil Twilight 5:24 AM EDT 9:04 PM EDT
Nautical Twilight 4:45 AM EDT 9:43 PM EDT
Astronomical Twilight 4:02 AM EDT 10:27 PM EDT
Moon 8:13 PM EDT (5/24) 5:26 AM EDT (5/24)
Length of Visible Light 15h 39m
Length of Day
14h 36m
Full, 100% of the Moon is Illuminated
May 24
Full
May 25
Full
May 31
Last Quarter
Jun 8
New
Jun 16
First Quarter

Hourly Weather History & Observations

Time (EDT) Temp. Windchill Dew Point Humidity Pressure Visibility Wind Dir Wind Speed Gust Speed Precip Events Conditions
12:00 AM 53.6 °F - 53.6 °F 100% 29.88 in 1.8 mi West 8.1 mph - N/A   Overcast
12:20 AM 53.6 °F - 53.6 °F 100% 29.88 in 1.0 mi West 11.5 mph - N/A   Overcast
12:40 AM 53.6 °F - 53.6 °F 100% 29.88 in 0.8 mi West 10.4 mph 17.3 mph N/A   Overcast
1:00 AM 51.8 °F - 51.8 °F 100% 29.88 in 2.5 mi WNW 8.1 mph 16.1 mph N/A   Overcast
1:20 AM 51.8 °F - 51.8 °F 100% 29.88 in 2.5 mi West 8.1 mph - N/A   Overcast
1:40 AM 51.8 °F - 51.8 °F 100% 29.88 in 0.2 mi WNW 9.2 mph 19.6 mph N/A Fog Fog
2:00 AM 50.0 °F - 50.0 °F 100% 29.88 in 0.2 mi NW 8.1 mph 18.4 mph N/A Fog Fog
2:20 AM 48.2 °F - 48.2 °F 100% 29.89 in 0.2 mi WNW 6.9 mph - N/A Fog Fog
2:40 AM 46.4 °F 41.9 °F 46.4 °F 100% 29.89 in 0.2 mi NW 9.2 mph - N/A Fog Fog
3:00 AM 42.8 °F 36.6 °F 42.8 °F 100% 29.90 in 0.2 mi WNW 11.5 mph 18.4 mph N/A Fog Fog
3:20 AM 42.8 °F 36.2 °F 42.8 °F 100% 29.90 in 0.2 mi NW 12.7 mph 16.1 mph N/A Fog Fog
3:40 AM 41.0 °F 35.2 °F 41.0 °F 100% 29.90 in 0.2 mi WNW 9.2 mph 16.1 mph N/A Fog Fog
4:00 AM 41.0 °F 35.2 °F 41.0 °F 100% 29.91 in 0.5 mi NW 9.2 mph 19.6 mph N/A Fog Fog
4:20 AM 41.0 °F 34.3 °F 41.0 °F 100% 29.91 in 0.2 mi WNW 11.5 mph 20.7 mph N/A Fog Fog
4:45 AM 37.4 °F 32.1 °F 37.4 °F 100% 29.92 in 0.5 mi NNW 6.9 mph 19.6 mph N/A Fog Fog
5:05 AM 37.4 °F 31.4 °F 37.4 °F 100% 29.93 in 0.5 mi WNW 8.1 mph - N/A Fog Fog
5:25 AM 37.4 °F 29.8 °F 37.4 °F 100% 29.93 in 0.8 mi NW 11.5 mph 20.7 mph N/A   Overcast
5:45 AM 37.4 °F 29.8 °F 37.4 °F 100% 29.94 in 0.5 mi NW 11.5 mph 23.0 mph N/A Fog Fog
6:05 AM 37.4 °F 31.4 °F 37.4 °F 100% 29.95 in 0.8 mi NW 8.1 mph 20.7 mph N/A   Overcast
6:25 AM 37.4 °F 29.8 °F 37.4 °F 100% 29.97 in 0.5 mi NW 11.5 mph 18.4 mph N/A Fog Fog
6:45 AM 35.6 °F 26.6 °F 35.6 °F 100% 29.97 in 0.5 mi WNW 13.8 mph 23.0 mph N/A Fog Fog
7:05 AM 35.6 °F 27.1 °F 35.6 °F 100% 29.98 in 0.2 mi NW 12.7 mph 19.6 mph N/A Fog Fog
7:25 AM 35.6 °F 28.0 °F 35.6 °F 100% 29.99 in 0.2 mi WNW 10.4 mph 21.9 mph N/A Fog Fog
7:45 AM 35.6 °F 27.5 °F 35.6 °F 100% 30.00 in 0.2 mi NW 11.5 mph 19.6 mph N/A Fog Fog
8:05 AM 35.6 °F 27.5 °F 35.6 °F 100% 30.01 in 0.2 mi WNW 11.5 mph 20.7 mph N/A Fog Fog
8:25 AM 35.6 °F 27.5 °F 35.6 °F 100% 30.02 in 1.0 mi NW 11.5 mph 20.7 mph N/A   Overcast
8:45 AM 35.6 °F 28.6 °F 35.6 °F 100% 30.03 in 0.2 mi NW 9.2 mph 16.1 mph N/A Fog Fog
9:05 AM 35.6 °F 27.5 °F 35.6 °F 100% 30.03 in 0.2 mi NW 11.5 mph 18.4 mph N/A Fog Fog
9:25 AM 35.6 °F 27.5 °F 35.6 °F 100% 30.04 in 0.2 mi NW 11.5 mph 16.1 mph N/A Fog Fog
9:45 AM 35.6 °F 27.5 °F 35.6 °F 100% 30.05 in 0.2 mi NW 11.5 mph 20.7 mph N/A Fog Fog
10:00 AM 35.6 °F 27.5 °F 35.6 °F 100% 30.06 in 0.2 mi WNW 11.5 mph 17.3 mph N/A Fog Fog
10:25 AM 35.6 °F 27.5 °F 35.6 °F 100% 30.06 in 0.2 mi WNW 11.5 mph 21.9 mph N/A Fog Fog
10:45 AM 35.6 °F 28.0 °F 35.6 °F 100% 30.06 in 0.2 mi WNW 10.4 mph 20.7 mph N/A Fog Fog
11:05 AM 35.6 °F 27.5 °F 35.6 °F 100% 30.07 in 0.2 mi WNW 11.5 mph 21.9 mph N/A Fog Fog
11:25 AM 35.6 °F 26.6 °F 35.6 °F 100% 30.08 in 0.2 mi WNW 13.8 mph 19.6 mph N/A Fog Fog
11:45 AM 33.8 °F 27.7 °F 33.8 °F 100% 30.09 in 0.2 mi NW 6.9 mph 20.7 mph N/A Fog Fog
12:05 PM 33.8 °F 25.3 °F 33.8 °F 100% 30.10 in 0.2 mi WNW 11.5 mph 20.7 mph N/A Fog Fog
12:25 PM 33.8 °F 25.3 °F 33.8 °F 100% 30.10 in 0.2 mi WNW 11.5 mph 20.7 mph N/A Fog Fog
12:45 PM 33.8 °F 24.8 °F 33.8 °F 100% 30.11 in 1.2 mi WNW 12.7 mph 21.9 mph N/A   Overcast
1:05 PM 35.6 °F 28.6 °F 35.6 °F 100% 30.11 in 2.5 mi WNW 9.2 mph 18.4 mph N/A   Overcast
1:25 PM 35.6 °F 28.6 °F 35.6 °F 100% 30.11 in 7.0 mi NW 9.2 mph 24.2 mph N/A   Overcast
1:45 PM 35.6 °F 29.2 °F 35.6 °F 100% 30.11 in 10.0 mi WNW 8.1 mph - N/A   Overcast
2:05 PM 37.4 °F 29.8 °F 37.4 °F 100% 30.12 in 10.0 mi WNW 11.5 mph 21.9 mph N/A   Overcast
2:25 PM 37.4 °F 29.8 °F 37.4 °F 100% 30.12 in 10.0 mi WNW 11.5 mph 24.2 mph N/A   Overcast
2:45 PM 41.0 °F 34.7 °F 39.2 °F 93% 30.12 in 10.0 mi NW 10.4 mph 19.6 mph N/A   Overcast
3:05 PM 37.4 °F 29.8 °F 35.6 °F 93% 30.13 in 10.0 mi NW 11.5 mph 24.2 mph N/A   Overcast
3:25 PM 37.4 °F 28.9 °F 33.8 °F 87% 30.12 in 10.0 mi WNW 13.8 mph 27.6 mph N/A   Overcast
3:45 PM 39.2 °F 31.2 °F 33.8 °F 81% 30.13 in 10.0 mi WNW 13.8 mph 24.2 mph N/A   Overcast
4:05 PM 41.0 °F 33.9 °F 32.0 °F 70% 30.13 in 10.0 mi WNW 12.7 mph 25.3 mph N/A   Mostly Cloudy
4:25 PM 39.2 °F 31.2 °F 32.0 °F 75% 30.13 in 10.0 mi WNW 13.8 mph 25.3 mph N/A   Mostly Cloudy
4:45 PM 39.2 °F 32.5 °F 32.0 °F 75% 30.14 in 10.0 mi NW 10.4 mph 24.2 mph N/A   Overcast
5:05 PM 39.2 °F 33.6 °F 32.0 °F 75% 30.15 in 10.0 mi NW 8.1 mph 16.1 mph N/A   Overcast
5:25 PM 39.2 °F 32.5 °F 32.0 °F 75% 30.15 in 10.0 mi WNW 10.4 mph 24.2 mph N/A   Overcast
5:45 PM 39.2 °F 32.5 °F 32.0 °F 75% 30.16 in 10.0 mi NW 10.4 mph 21.9 mph N/A   Overcast
6:05 PM 41.0 °F 33.9 °F 32.0 °F 70% 30.16 in 10.0 mi NW 12.7 mph 19.6 mph N/A   Overcast
6:25 PM 41.0 °F 34.7 °F 32.0 °F 70% 30.16 in 10.0 mi NW 10.4 mph 16.1 mph N/A   Overcast
6:45 PM 41.0 °F 34.7 °F 32.0 °F 70% 30.16 in 10.0 mi West 10.4 mph 20.7 mph N/A   Overcast
7:05 PM 39.2 °F 32.5 °F 32.0 °F 75% 30.17 in 10.0 mi WNW 10.4 mph 23.0 mph N/A   Overcast
7:25 PM 37.4 °F 29.8 °F 32.0 °F 81% 30.17 in 10.0 mi WNW 11.5 mph 16.1 mph N/A   Overcast
7:45 PM 37.4 °F 30.8 °F 32.0 °F 81% 30.18 in 10.0 mi WNW 9.2 mph 21.9 mph N/A   Overcast
8:05 PM 35.6 °F 28.0 °F 32.0 °F 87% 30.19 in 10.0 mi WNW 10.4 mph 20.7 mph N/A   Overcast
8:25 PM 35.6 °F 28.6 °F 32.0 °F 87% 30.19 in 10.0 mi WNW 9.2 mph 19.6 mph N/A   Overcast
8:45 PM 35.6 °F 27.5 °F 32.0 °F 87% 30.18 in 10.0 mi WNW 11.5 mph 19.6 mph N/A   Overcast
9:05 PM 35.6 °F 28.0 °F 32.0 °F 87% 30.19 in 10.0 mi WNW 10.4 mph 20.7 mph N/A   Mostly Cloudy
9:25 PM 33.8 °F 26.4 °F 32.0 °F 93% 30.19 in 10.0 mi WNW 9.2 mph 17.3 mph N/A   Overcast
9:45 PM 33.8 °F 25.3 °F 32.0 °F 93% 30.20 in 10.0 mi WNW 11.5 mph 18.4 mph N/A   Overcast
10:05 PM 33.8 °F 25.8 °F 32.0 °F 93% 30.20 in 10.0 mi NW 10.4 mph 17.3 mph N/A   Mostly Cloudy
10:25 PM 33.8 °F 26.4 °F 32.0 °F 93% 30.20 in 10.0 mi WNW 9.2 mph 17.3 mph N/A   Mostly Cloudy
10:45 PM 33.8 °F 25.8 °F 30.2 °F 87% 30.21 in 10.0 mi NW 10.4 mph 16.1 mph N/A   Overcast
11:05 PM 33.8 °F 25.8 °F 30.2 °F 87% 30.20 in 10.0 mi NW 10.4 mph - N/A   Overcast
11:25 PM 33.8 °F 26.4 °F 32.0 °F 93% 30.20 in 10.0 mi WNW 9.2 mph 17.3 mph N/A   Overcast
11:45 PM 33.8 °F 26.4 °F 32.0 °F 93% 30.21 in 10.0 mi WNW 9.2 mph - N/A   Overcast